Etusivu
METAR-TAF:

METAR-TAF

Lentoasemat :

Marianna Municipal Airport

Marianna, Florida, Yhdysvallat

Leveyspiiri: 30-50-12N, Pituuspiiri: 085-11-01W, korkeus merenpinnasta: 34 m

Tämänhetkinen sää

Tämä raportti tehtiin 27 minuuttia sitten, kello 06.53 UTC
Tuuli 3 kn lännestä
Lämpötila 24°C
Kosteus 94%
Ilmanpaine 1014 hPa
Näkyvyys: 16.1 km
selkeää

METAR: KMAI 170653Z AUTO 27003KT 10SM CLR 24/23 A2995 RMK AO2 SLP140 T02390233

Aika: 02:20 (07:20 UTC)


TAF: puuttuu

Säähavainnot ja -ennusteet yli 4000 lentoasemalta (METAR- ja TAF-raportit).

Käytössä olevat sääasemat on merkitty karttaan keltaisilla ja punaisilla pisteillä.

Aseta hiiri pisteen päälle nähdäksesi sääaseman nimen.

Klikkaa sitten nähdäksesi säähavainnot ja -ennusteet.

Kartan vaihtaminen: klikkaa mustalla rastilla varustettuja vihreitä pisteitä, niin voit zoomata sisään; viivalla varustettua vihreää pistettä, niin voit zoomata ulos tai vihreitä nuolia, niin pääset viereisille kartoille.


METAR-TAF: